Time,TemperatureF,DewpointF,PressureIn,WindDirection,WindDirectionDegrees,WindSpeedMPH,WindSpeedGustMPH,Humidity,HourlyPrecipIn,Conditions,Clouds,dailyrainin,SolarRadiationWatts/m^2,SoftwareType,DateUTC
2013-06-22 00:00:00,80.1,64.0,29.67,SE,130,7.0,15.0,58,0.00,,SKC,0.00,0.00,VWS V14.01,2013-06-22 05:00:00,
2013-06-22 00:01:00,80.1,64.0,29.67,SE,134,7.0,15.0,58,0.00,,---,0.00,0.00,VWS V14.00,2013-06-22 05:01:00,
2013-06-22 00:06:00,80.0,64.4,29.67,SE,132,5.0,15.0,59,0.00,,---,0.00,0.00,VWS V14.00,2013-06-22 05:06:00,
2013-06-22 00:10:00,79.8,64.2,29.68,East,101,7.0,17.0,59,0.00,,SKC,0.00,0.00,VWS V14.01,2013-06-22 05:10:00,
2013-06-22 00:11:00,79.9,64.3,29.68,SE,138,6.0,17.0,59,0.00,,---,0.00,0.00,VWS V14.00,2013-06-22 05:11:00,
2013-06-22 00:16:00,79.7,64.6,29.68,SE,124,7.0,13.0,60,0.00,,---,0.00,0.00,VWS V14.00,2013-06-22 05:16:00,
2013-06-22 00:20:00,79.5,64.9,29.67,SE,133,4.0,13.0,61,0.00,,SKC,0.00,0.00,VWS V14.01,2013-06-22 05:20:00,
2013-06-22 00:21:00,79.5,64.9,29.67,SE,132,5.0,13.0,61,0.00,,---,0.00,0.00,VWS V14.00,2013-06-22 05:21:00,
2013-06-22 00:26:00,79.3,65.2,29.67,SE,145,7.0,15.0,62,0.00,,---,0.00,0.00,VWS V14.00,2013-06-22 05:26:00,
2013-06-22 00:30:00,79.2,65.1,29.67,SE,133,9.0,16.0,62,0.00,,SKC,0.00,0.00,VWS V14.01,2013-06-22 05:30:00,
2013-06-22 00:31:00,79.2,65.1,29.67,SE,132,7.0,16.0,62,0.00,,---,0.00,0.00,VWS V14.00,2013-06-22 05:31:00,
2013-06-22 00:36:00,79.0,65.3,29.67,SSE,161,6.0,12.0,63,0.00,,---,0.00,0.00,VWS V14.00,2013-06-22 05:36:00,
2013-06-22 00:40:00,78.8,65.6,29.67,SE,133,6.0,12.0,64,0.00,,SKC,0.00,0.00,VWS V14.01,2013-06-22 05:40:00,
2013-06-22 00:41:00,78.9,65.7,29.67,SE,132,4.0,12.0,64,0.00,,---,0.00,0.00,VWS V14.00,2013-06-22 05:41:00,
2013-06-22 00:46:00,78.7,66.0,29.66,SE,136,10.0,19.0,65,0.00,,---,0.00,0.00,VWS V14.00,2013-06-22 05:46:00,
2013-06-22 00:50:00,78.5,65.8,29.66,SE,134,6.0,19.0,65,0.00,,SKC,0.00,0.00,VWS V14.01,2013-06-22 05:50:00,
2013-06-22 00:51:00,78.5,65.8,29.66,ESE,115,7.0,19.0,65,0.00,,---,0.00,0.00,VWS V14.00,2013-06-22 05:51:00,
2013-06-22 00:56:00,78.4,66.1,29.66,SE,130,11.0,14.0,66,0.00,,---,0.00,0.00,VWS V14.00,2013-06-22 05:56:00,
2013-06-22 01:00:00,78.2,66.4,29.66,SE,138,6.0,14.0,67,0.00,,SKC,0.00,0.00,VWS V14.01,2013-06-22 06:00:00,
2013-06-22 01:01:00,78.2,66.4,29.66,SE,126,6.0,14.0,67,0.00,,---,0.00,0.00,VWS V14.00,2013-06-22 06:01:00,
2013-06-22 01:06:00,78.0,66.2,29.66,SSE,150,8.0,13.0,67,0.00,,---,0.00,0.00,VWS V14.00,2013-06-22 06:06:00,
2013-06-22 01:10:00,77.9,66.9,29.66,SE,132,8.0,14.0,69,0.00,,SKC,0.00,0.00,VWS V14.01,2013-06-22 06:10:00,
2013-06-22 01:11:00,77.9,66.9,29.66,SSE,156,12.0,14.0,69,0.00,,---,0.00,0.00,VWS V14.00,2013-06-22 06:11:00,
2013-06-22 01:16:00,77.7,67.1,29.66,ESE,112,8.0,14.0,70,0.00,,---,0.00,0.00,VWS V14.00,2013-06-22 06:16:00,
2013-06-22 01:20:00,77.6,67.5,29.66,SE,133,9.0,17.0,71,0.00,,SKC,0.00,0.00,VWS V14.01,2013-06-22 06:20:00,
2013-06-22 01:21:00,77.6,67.5,29.66,SE,129,11.0,17.0,71,0.00,,---,0.00,0.00,VWS V14.00,2013-06-22 06:21:00,
2013-06-22 01:26:00,77.5,67.4,29.65,SSE,147,5.0,13.0,71,0.00,,---,0.00,0.00,VWS V14.00,2013-06-22 06:26:00,
2013-06-22 01:30:00,77.3,67.6,29.66,SE,129,9.0,13.0,72,0.00,,SKC,0.00,0.00,VWS V14.01,2013-06-22 06:30:00,
2013-06-22 01:31:00,77.3,67.6,29.66,SE,137,9.0,13.0,72,0.00,,---,0.00,0.00,VWS V14.00,2013-06-22 06:31:00,
2013-06-22 01:36:00,77.1,67.8,29.66,ESE,119,11.0,15.0,73,0.00,,---,0.00,0.00,VWS V14.00,2013-06-22 06:36:00,
2013-06-22 01:40:00,76.9,68.0,29.66,SE,134,8.0,15.0,74,0.00,,SKC,0.00,0.00,VWS V14.01,2013-06-22 06:40:00,
2013-06-22 01:41:00,77.0,68.1,29.66,SE,132,7.0,15.0,74,0.00,,---,0.00,0.00,VWS V14.00,2013-06-22 06:41:00,
2013-06-22 01:46:00,76.9,68.0,29.65,ESE,111,7.0,13.0,74,0.00,,---,0.00,0.00,VWS V14.00,2013-06-22 06:46:00,
2013-06-22 01:50:00,76.7,68.2,29.65,SE,130,5.0,16.0,75,0.00,,SKC,0.00,0.00,VWS V14.01,2013-06-22 06:50:00,
2013-06-22 01:51:00,76.7,68.2,29.65,SE,130,6.0,16.0,75,0.00,,---,0.00,0.00,VWS V14.00,2013-06-22 06:51:00,
2013-06-22 01:56:00,76.6,68.1,29.65,SE,142,9.0,17.0,75,0.00,,---,0.00,0.00,VWS V14.00,2013-06-22 06:56:00,
2013-06-22 02:00:00,76.4,68.3,29.64,SSE,153,7.0,17.0,76,0.00,,SKC,0.00,0.00,VWS V14.01,2013-06-22 07:00:00,
2013-06-22 02:01:00,76.4,68.3,29.64,SE,133,7.0,17.0,76,0.00,,---,0.00,0.00,VWS V14.00,2013-06-22 07:01:00,
2013-06-22 02:06:00,76.3,68.2,29.65,SSE,149,9.0,12.0,76,0.00,,---,0.00,0.00,VWS V14.00,2013-06-22 07:06:00,
2013-06-22 02:10:00,76.2,68.5,29.64,SE,137,7.0,13.0,77,0.00,,SKC,0.00,0.00,VWS V14.01,2013-06-22 07:10:00,
2013-06-22 02:11:00,76.2,68.5,29.64,SE,140,7.0,13.0,77,0.00,,---,0.00,0.00,VWS V14.00,2013-06-22 07:11:00,
2013-06-22 02:16:00,76.1,68.4,29.64,SE,136,8.0,17.0,77,0.00,,---,0.00,0.00,VWS V14.00,2013-06-22 07:16:00,
2013-06-22 02:20:00,75.9,68.2,29.64,ESE,121,7.0,17.0,77,0.00,,SKC,0.00,0.00,VWS V14.01,2013-06-22 07:20:00,
2013-06-22 02:21:00,76.0,68.3,29.64,SE,125,9.0,17.0,77,0.00,,---,0.00,0.00,VWS V14.00,2013-06-22 07:21:00,
2013-06-22 02:26:00,75.8,68.5,29.63,SE,137,5.0,12.0,78,0.00,,---,0.00,0.00,VWS V14.00,2013-06-22 07:26:00,
2013-06-22 02:30:00,75.7,68.4,29.63,SE,126,4.0,15.0,78,0.00,,SKC,0.00,0.00,VWS V14.01,2013-06-22 07:30:00,
2013-06-22 02:31:00,75.7,68.4,29.63,SE,126,7.0,15.0,78,0.00,,---,0.00,0.00,VWS V14.00,2013-06-22 07:31:00,
2013-06-22 02:35:00,75.6,68.6,29.63,SE,131,8.0,12.0,79,0.00,,---,0.00,0.00,VWS V14.00,2013-06-22 07:35:00,
2013-06-22 02:40:00,75.4,68.4,29.63,SE,127,7.0,13.0,79,0.00,,---,0.00,0.00,VWS V14.00,2013-06-22 07:40:00,
2013-06-22 02:46:00,75.3,68.7,29.63,SE,145,13.0,15.0,80,0.00,,---,0.00,0.00,VWS V14.00,2013-06-22 07:46:00,
2013-06-22 02:50:00,75.2,68.6,29.63,SE,132,7.0,15.0,80,0.00,,---,0.00,0.00,VWS V14.00,2013-06-22 07:50:00,
2013-06-22 02:55:00,75.1,68.9,29.63,SSE,148,11.0,14.0,81,0.00,,---,0.00,0.00,VWS V14.00,2013-06-22 07:55:00,
2013-06-22 03:00:00,75.0,68.8,29.63,SE,132,6.0,14.0,81,0.00,,---,0.00,0.00,VWS V14.00,2013-06-22 08:00:00,
2013-06-22 03:05:00,74.9,68.7,29.63,SSE,148,5.0,11.0,81,0.00,,---,0.00,0.00,VWS V14.00,2013-06-22 08:05:00,
2013-06-22 03:10:00,74.8,68.9,29.63,SE,131,7.0,11.0,82,0.00,,---,0.00,0.00,VWS V14.00,2013-06-22 08:10:00,
2013-06-22 03:15:00,74.6,68.8,29.63,ESE,119,8.0,12.0,82,0.00,,---,0.00,0.00,VWS V14.00,2013-06-22 08:15:00,
2013-06-22 03:20:00,74.5,68.7,29.62,SSE,150,5.0,13.0,82,0.00,,---,0.00,0.00,VWS V14.00,2013-06-22 08:20:00,
2013-06-22 03:25:00,74.4,68.6,29.62,SE,142,8.0,10.0,82,0.00,,---,0.00,0.00,VWS V14.00,2013-06-22 08:25:00,
2013-06-22 03:30:00,74.3,68.8,29.62,ESE,105,7.0,12.0,83,0.00,,---,0.00,0.00,VWS V14.00,2013-06-22 08:30:00,
2013-06-22 03:35:00,74.3,68.8,29.62,SE,128,5.0,19.0,83,0.00,,---,0.00,0.00,VWS V14.00,2013-06-22 08:35:00,
2013-06-22 03:40:00,74.2,68.7,29.62,SE,142,5.0,19.0,83,0.00,,---,0.00,0.00,VWS V14.00,2013-06-22 08:40:00,
2013-06-22 03:45:00,74.3,68.8,29.62,ESE,103,6.0,11.0,83,0.00,,---,0.00,0.00,VWS V14.00,2013-06-22 08:45:00,
2013-06-22 03:50:00,74.3,68.8,29.62,SE,126,18.0,18.0,83,0.00,,---,0.00,0.00,VWS V14.00,2013-06-22 08:50:00,
2013-06-22 03:55:00,74.3,68.8,29.62,ESE,121,7.0,11.0,83,0.00,,---,0.00,0.00,VWS V14.00,2013-06-22 08:55:00,
2013-06-22 04:00:00,74.3,68.8,29.62,SE,128,6.0,13.0,83,0.00,,---,0.00,0.00,VWS V14.00,2013-06-22 09:00:00,
2013-06-22 04:05:00,74.3,68.8,29.61,SE,129,5.0,12.0,83,0.00,,---,0.00,0.00,VWS V14.00,2013-06-22 09:05:00,
2013-06-22 04:10:00,74.2,68.7,29.61,SE,129,12.0,13.0,83,0.00,,---,0.00,0.00,VWS V14.00,2013-06-22 09:10:00,
2013-06-22 04:15:00,74.2,68.7,29.61,SE,129,5.0,13.0,83,0.00,,---,0.00,0.00,VWS V14.00,2013-06-22 09:15:00,
2013-06-22 04:20:00,74.2,68.7,29.62,SE,130,5.0,14.0,83,0.00,,---,0.00,0.00,VWS V14.00,2013-06-22 09:20:00,
2013-06-22 04:25:00,74.2,68.7,29.61,SE,138,4.0,12.0,83,0.00,,---,0.00,0.00,VWS V14.00,2013-06-22 09:25:00,
2013-06-22 04:30:00,74.3,68.8,29.61,SE,138,8.0,14.0,83,0.00,,---,0.00,0.00,VWS V14.00,2013-06-22 09:30:00,
2013-06-22 04:35:00,74.3,68.4,29.62,SE,146,6.0,13.0,82,0.00,,---,0.00,0.00,VWS V14.00,2013-06-22 09:35:00,
2013-06-22 04:40:00,74.3,68.4,29.62,SE,144,4.0,13.0,82,0.00,,---,0.00,0.00,VWS V14.00,2013-06-22 09:40:00,
2013-06-22 04:45:00,74.4,68.6,29.62,SE,146,8.0,11.0,82,0.00,,---,0.00,0.00,VWS V14.00,2013-06-22 09:45:00,
2013-06-22 04:50:00,74.4,68.6,29.62,SSE,149,8.0,11.0,82,0.00,,---,0.00,0.00,VWS V14.00,2013-06-22 09:50:00,
2013-06-22 04:55:00,74.4,68.6,29.62,SE,142,0.0,11.0,82,0.00,,---,0.00,0.00,VWS V14.00,2013-06-22 09:55:00,
2013-06-22 05:00:00,74.5,68.7,29.62,SE,138,8.0,11.0,82,0.00,,---,0.00,0.00,VWS V14.00,2013-06-22 10:00:00,
2013-06-22 05:05:00,74.5,68.7,29.63,SE,140,6.0,14.0,82,0.00,,---,0.00,0.00,VWS V14.00,2013-06-22 10:05:00,
2013-06-22 05:10:00,74.5,68.7,29.63,SE,144,7.0,14.0,82,0.00,,---,0.00,0.00,VWS V14.00,2013-06-22 10:10:00,
2013-06-22 05:15:00,74.5,68.7,29.62,ESE,121,9.0,12.0,82,0.00,,---,0.00,0.00,VWS V14.00,2013-06-22 10:15:00,
2013-06-22 05:20:00,74.6,68.8,29.62,South,182,4.0,12.0,82,0.00,,---,0.00,0.00,VWS V14.00,2013-06-22 10:20:00,
2013-06-22 05:25:00,74.6,68.8,29.63,SSE,150,6.0,13.0,82,0.00,,---,0.00,0.00,VWS V14.00,2013-06-22 10:25:00,
2013-06-22 05:30:00,74.6,68.8,29.63,SE,144,4.0,13.0,82,0.00,,---,0.00,0.00,VWS V14.00,2013-06-22 10:30:00,
2013-06-22 05:35:00,74.6,68.8,29.63,SSE,148,5.0,10.0,82,0.00,,---,0.00,0.00,VWS V14.00,2013-06-22 10:35:00,
2013-06-22 05:40:00,74.6,68.8,29.64,SSE,156,6.0,11.0,82,0.00,,---,0.00,0.00,VWS V14.00,2013-06-22 10:40:00,
2013-06-22 05:45:00,74.6,68.8,29.63,SE,146,8.0,11.0,82,0.00,,---,0.00,0.00,VWS V14.00,2013-06-22 10:45:00,
2013-06-22 05:50:00,74.6,68.8,29.63,SSE,148,8.0,11.0,82,0.00,,---,0.00,0.00,VWS V14.00,2013-06-22 10:50:00,
2013-06-22 05:55:00,74.6,68.8,29.64,ESE,120,2.0,12.0,82,0.00,,---,0.00,0.00,VWS V14.00,2013-06-22 10:55:00,
2013-06-22 06:00:00,74.5,68.7,29.63,SE,126,7.0,12.0,82,0.00,,---,0.00,0.00,VWS V14.00,2013-06-22 11:00:00,
2013-06-22 06:05:00,74.5,68.3,29.63,SE,126,4.0,7.0,81,0.00,,---,0.00,0.00,VWS V14.00,2013-06-22 11:05:00,
2013-06-22 06:10:00,74.4,68.2,29.64,SE,143,6.0,14.0,81,0.00,,---,0.00,0.00,VWS V14.00,2013-06-22 11:10:00,
2013-06-22 06:15:00,74.3,68.4,29.63,SE,142,4.0,10.0,82,0.00,,---,0.00,0.00,VWS V14.00,2013-06-22 11:15:00,
2013-06-22 06:20:00,74.2,68.4,29.64,SE,138,4.0,11.0,82,0.00,,---,0.00,0.00,VWS V14.00,2013-06-22 11:20:00,
2013-06-22 06:25:00,74.1,68.3,29.64,SE,137,2.0,8.0,82,0.00,,---,0.00,0.00,VWS V14.00,2013-06-22 11:25:00,
2013-06-22 06:30:00,73.9,68.1,29.64,SE,137,4.0,8.0,82,0.00,,---,0.00,0.00,VWS V14.00,2013-06-22 11:30:00,
2013-06-22 06:35:00,73.8,68.0,29.64,SE,136,5.0,8.0,82,0.00,,---,0.00,0.00,VWS V14.00,2013-06-22 11:35:00,
2013-06-22 06:40:00,73.7,67.9,29.64,SE,136,5.0,9.0,82,0.00,,---,0.00,5.00,VWS V14.00,2013-06-22 11:40:00,
2013-06-22 06:45:00,73.5,67.7,29.64,SE,133,5.0,10.0,82,0.00,,---,0.00,9.00,VWS V14.00,2013-06-22 11:45:00,
2013-06-22 06:50:00,73.4,67.6,29.64,SE,134,5.0,11.0,82,0.00,,---,0.00,18.00,VWS V14.00,2013-06-22 11:50:00,
2013-06-22 06:55:00,73.3,67.5,29.64,SE,136,5.0,8.0,82,0.00,,---,0.00,25.00,VWS V14.00,2013-06-22 11:55:00,
2013-06-22 07:00:00,73.3,67.8,29.64,SE,138,0.0,10.0,83,0.00,,---,0.00,26.00,VWS V14.00,2013-06-22 12:00:00,
2013-06-22 07:05:00,73.3,67.8,29.65,SE,138,6.0,7.0,83,0.00,,---,0.00,32.00,VWS V14.00,2013-06-22 12:05:00,
2013-06-22 07:10:00,73.2,67.7,29.65,SE,138,5.0,7.0,83,0.00,,---,0.00,37.00,VWS V14.00,2013-06-22 12:10:00,
2013-06-22 07:15:00,73.2,68.1,29.65,SE,139,7.0,8.0,84,0.00,,---,0.00,44.00,VWS V14.00,2013-06-22 12:15:00,
2013-06-22 07:20:00,73.1,68.0,29.65,SE,136,4.0,9.0,84,0.00,,---,0.00,44.00,VWS V14.00,2013-06-22 12:20:00,
2013-06-22 07:25:00,73.1,68.0,29.66,SE,136,8.0,8.0,84,0.00,,---,0.00,44.00,VWS V14.00,2013-06-22 12:25:00,
2013-06-22 07:30:00,73.1,68.0,29.66,SE,136,0.0,9.0,84,0.00,,---,0.00,76.00,VWS V14.00,2013-06-22 12:30:00,
2013-06-22 07:35:00,73.2,68.1,29.67,SE,136,2.0,8.0,84,0.00,,---,0.00,93.00,VWS V14.00,2013-06-22 12:35:00,
2013-06-22 07:40:00,73.3,68.2,29.67,SE,136,5.0,8.0,84,0.00,,---,0.00,107.00,VWS V14.00,2013-06-22 12:40:00,
2013-06-22 07:45:00,73.4,68.3,29.66,SE,140,9.0,10.0,84,0.00,,---,0.00,100.00,VWS V14.00,2013-06-22 12:45:00,
2013-06-22 07:50:00,73.6,68.1,29.66,SE,140,6.0,10.0,83,0.00,,---,0.00,121.00,VWS V14.00,2013-06-22 12:50:00,
2013-06-22 07:55:00,73.8,68.3,29.67,SE,140,2.0,9.0,83,0.00,,---,0.00,114.00,VWS V14.00,2013-06-22 12:55:00,
2013-06-22 08:00:00,74.0,68.5,29.66,SE,145,6.0,9.0,83,0.00,,---,0.00,132.00,VWS V14.00,2013-06-22 13:00:00,
2013-06-22 08:05:00,74.2,68.4,29.67,SE,144,6.0,10.0,82,0.00,,---,0.00,141.00,VWS V14.00,2013-06-22 13:05:00,
2013-06-22 08:10:00,74.4,68.2,29.67,SE,138,5.0,10.0,81,0.00,,---,0.00,151.00,VWS V14.00,2013-06-22 13:10:00,
2013-06-22 08:15:00,74.6,68.4,29.68,SE,144,7.0,11.0,81,0.00,,---,0.00,162.00,VWS V14.00,2013-06-22 13:15:00,
2013-06-22 08:20:00,74.8,68.6,29.68,SSE,148,5.0,11.0,81,0.00,,---,0.00,167.00,VWS V14.00,2013-06-22 13:20:00,
2013-06-22 08:25:00,74.9,68.3,29.68,SSE,149,7.0,11.0,80,0.00,,---,0.00,160.00,VWS V14.00,2013-06-22 13:25:00,
2013-06-22 08:30:00,75.2,68.6,29.67,SSE,148,2.0,11.0,80,0.00,,---,0.00,362.00,VWS V14.00,2013-06-22 13:30:00,
2013-06-22 08:35:00,75.6,68.6,29.68,SSE,150,4.0,12.0,79,0.00,,---,0.00,374.00,VWS V14.00,2013-06-22 13:35:00,
2013-06-22 08:40:00,75.8,68.5,29.68,SSE,155,6.0,13.0,78,0.00,,---,0.00,367.00,VWS V14.00,2013-06-22 13:40:00,
2013-06-22 08:45:00,76.0,68.7,29.68,SSE,151,7.0,13.0,78,0.00,,---,0.00,387.00,VWS V14.00,2013-06-22 13:45:00,
2013-06-22 08:50:00,76.3,68.6,29.68,SSE,156,6.0,13.0,77,0.00,,---,0.00,220.00,VWS V14.00,2013-06-22 13:50:00,
2013-06-22 08:55:00,76.7,68.9,29.68,SSE,160,12.0,14.0,77,0.00,,---,0.00,454.00,VWS V14.00,2013-06-22 13:55:00,
2013-06-22 09:00:00,77.0,68.5,29.68,South,171,7.0,15.0,75,0.00,,---,0.00,422.00,VWS V14.00,2013-06-22 14:00:00,
2013-06-22 09:05:00,77.3,68.8,29.68,SSE,150,9.0,12.0,75,0.00,,---,0.00,455.00,VWS V14.00,2013-06-22 14:05:00,
2013-06-22 09:10:00,77.6,68.3,29.68,SSE,153,8.0,14.0,73,0.00,,---,0.00,468.00,VWS V14.00,2013-06-22 14:10:00,
2013-06-22 09:15:00,77.9,68.6,29.68,SE,136,8.0,13.0,73,0.00,,---,0.00,401.00,VWS V14.00,2013-06-22 14:15:00,
2013-06-22 09:20:00,78.3,68.1,29.68,SE,128,12.0,17.0,71,0.00,,---,0.00,446.00,VWS V14.00,2013-06-22 14:20:00,
2013-06-22 09:25:00,78.4,67.8,29.68,ESE,115,4.0,19.0,70,0.00,,---,0.00,499.00,VWS V14.00,2013-06-22 14:25:00,
2013-06-22 09:30:00,78.6,68.0,29.69,SSE,167,5.0,19.0,70,0.00,,---,0.00,497.00,VWS V14.00,2013-06-22 14:30:00,
2013-06-22 09:35:00,79.0,68.4,29.69,South,191,3.0,8.0,70,0.00,,---,0.00,534.00,VWS V14.00,2013-06-22 14:35:00,
2013-06-22 09:40:00,79.3,68.7,29.69,SE,126,8.0,13.0,70,0.00,,---,0.00,547.00,VWS V14.00,2013-06-22 14:40:00,
2013-06-22 09:45:00,79.4,68.3,29.69,SW,216,5.0,12.0,69,0.00,,---,0.00,610.00,VWS V14.00,2013-06-22 14:45:00,
2013-06-22 09:50:00,79.5,68.4,29.69,SE,145,5.0,12.0,69,0.00,,---,0.00,420.00,VWS V14.00,2013-06-22 14:50:00,
2013-06-22 09:55:00,79.5,68.4,29.69,SSE,157,2.0,12.0,69,0.00,,---,0.00,206.00,VWS V14.00,2013-06-22 14:55:00,
2013-06-22 10:00:00,79.8,68.3,29.69,ESE,120,13.0,13.0,68,0.00,,---,0.00,624.00,VWS V14.00,2013-06-22 15:00:00,
2013-06-22 10:05:00,80.5,68.1,29.69,SE,132,9.0,15.0,66,0.00,,---,0.00,628.00,VWS V14.00,2013-06-22 15:05:00,
2013-06-22 10:10:00,81.0,67.7,29.68,SSE,154,6.0,15.0,64,0.00,,---,0.00,645.00,VWS V14.00,2013-06-22 15:10:00,
2013-06-22 10:15:00,81.4,68.1,29.68,SSE,155,11.0,18.0,64,0.00,,---,0.00,680.00,VWS V14.00,2013-06-22 15:15:00,
2013-06-22 10:20:00,81.5,68.2,29.68,SSE,148,13.0,18.0,64,0.00,,---,0.00,701.00,VWS V14.00,2013-06-22 15:20:00,
2013-06-22 10:25:00,82.0,67.7,29.68,SSE,157,8.0,19.0,62,0.00,,---,0.00,735.00,VWS V14.00,2013-06-22 15:25:00,
2013-06-22 10:30:00,82.5,68.6,29.69,SSW,200,4.0,19.0,63,0.00,,---,0.00,680.00,VWS V14.00,2013-06-22 15:30:00,
2013-06-22 10:35:00,82.7,68.4,29.69,SW,230,6.0,10.0,62,0.00,,---,0.00,761.00,VWS V14.00,2013-06-22 15:35:00,
2013-06-22 10:40:00,82.9,68.6,29.69,SW,228,4.0,11.0,62,0.00,,---,0.00,838.00,VWS V14.00,2013-06-22 15:40:00,
2013-06-22 10:45:00,83.6,68.3,29.69,SSW,211,5.0,14.0,60,0.00,,---,0.00,824.00,VWS V14.00,2013-06-22 15:45:00,
2013-06-22 10:50:00,83.7,68.3,29.69,SSE,161,8.0,18.0,60,0.00,,---,0.00,868.00,VWS V14.00,2013-06-22 15:50:00,
2013-06-22 10:55:00,83.8,68.0,29.69,SSW,196,6.0,13.0,59,0.00,,---,0.00,868.00,VWS V14.00,2013-06-22 15:55:00,
2013-06-22 11:00:00,83.9,68.1,29.69,South,180,3.0,13.0,59,0.00,,---,0.00,796.00,VWS V14.00,2013-06-22 16:00:00,
2013-06-22 11:05:00,84.3,67.9,29.68,SE,132,8.0,17.0,58,0.00,,---,0.00,786.00,VWS V14.00,2013-06-22 16:05:00,
2013-06-22 11:10:00,84.6,67.7,29.68,SSE,153,4.0,17.0,57,0.00,,---,0.00,817.00,VWS V14.00,2013-06-22 16:10:00,
2013-06-22 11:15:00,85.2,67.8,29.69,SSE,157,9.0,14.0,56,0.00,,---,0.00,858.00,VWS V14.00,2013-06-22 16:15:00,
2013-06-22 11:20:00,85.6,67.6,29.68,SE,132,11.0,18.0,55,0.00,,---,0.00,819.00,VWS V14.00,2013-06-22 16:20:00,
2013-06-22 11:25:00,85.7,67.7,29.68,SSW,209,5.0,12.0,55,0.00,,---,0.00,854.00,VWS V14.00,2013-06-22 16:25:00,
2013-06-22 11:30:00,86.1,67.0,29.68,SE,124,11.0,21.0,53,0.00,,---,0.00,861.00,VWS V14.00,2013-06-22 16:30:00,
2013-06-22 11:35:00,86.0,66.9,29.68,SSE,155,7.0,15.0,53,0.00,,---,0.00,868.00,VWS V14.00,2013-06-22 16:35:00,
2013-06-22 11:40:00,86.2,66.5,29.68,SSW,205,2.0,15.0,52,0.00,,---,0.00,891.00,VWS V14.00,2013-06-22 16:40:00,
2013-06-22 11:45:00,86.7,67.0,29.68,SE,134,12.0,12.0,52,0.00,,---,0.00,828.00,VWS V14.00,2013-06-22 16:45:00,
2013-06-22 11:50:00,87.0,66.1,29.69,SSE,167,7.0,17.0,50,0.00,,---,0.00,893.00,VWS V14.00,2013-06-22 16:50:00,
2013-06-22 11:55:00,87.3,65.2,29.69,SSE,147,7.0,17.0,48,0.00,,---,0.00,911.00,VWS V14.00,2013-06-22 16:55:00,
2013-06-22 12:00:00,87.6,64.9,29.69,SE,138,10.0,19.0,47,0.00,,---,0.00,914.00,VWS V14.00,2013-06-22 17:00:00,
2013-06-22 12:05:00,87.9,66.4,29.68,SSE,161,5.0,16.0,49,0.00,,---,0.00,886.00,VWS V14.00,2013-06-22 17:05:00,
2013-06-22 12:10:00,88.2,66.1,29.68,South,174,6.0,16.0,48,0.00,,---,0.00,902.00,VWS V14.00,2013-06-22 17:10:00,
2013-06-22 12:15:00,88.5,66.3,29.68,SSE,160,6.0,12.0,48,0.00,,---,0.00,965.00,VWS V14.00,2013-06-22 17:15:00,
2013-06-22 12:20:00,88.8,66.0,29.68,SE,144,5.0,13.0,47,0.00,,---,0.00,893.00,VWS V14.00,2013-06-22 17:20:00,
2013-06-22 12:25:00,89.0,65.6,29.68,SE,144,9.0,17.0,46,0.00,,---,0.00,909.00,VWS V14.00,2013-06-22 17:25:00,
2013-06-22 12:30:00,88.8,65.4,29.68,SE,130,9.0,26.0,46,0.00,,---,0.00,928.00,VWS V14.00,2013-06-22 17:30:00,
2013-06-22 12:35:00,88.7,65.3,29.68,SSE,148,6.0,17.0,46,0.00,,---,0.00,911.00,VWS V14.00,2013-06-22 17:35:00,
2013-06-22 12:40:00,88.8,64.7,29.68,SSE,161,8.0,17.0,45,0.00,,---,0.00,846.00,VWS V14.00,2013-06-22 17:40:00,
2013-06-22 12:45:00,88.8,64.7,29.69,SE,146,10.0,13.0,45,0.00,,---,0.00,826.00,VWS V14.00,2013-06-22 17:45:00,
2013-06-22 12:50:00,88.9,65.5,29.68,SSE,167,8.0,15.0,46,0.00,,---,0.00,974.00,VWS V14.00,2013-06-22 17:50:00,
2013-06-22 12:55:00,89.5,65.4,29.68,ESE,119,8.0,15.0,45,0.00,,---,0.00,977.00,VWS V14.00,2013-06-22 17:55:00,
2013-06-22 13:00:00,89.5,65.4,29.67,East,91,8.0,22.0,45,0.00,,---,0.00,958.00,VWS V14.00,2013-06-22 18:00:00,
2013-06-22 13:05:00,89.3,65.2,29.68,SE,135,15.0,15.0,45,0.00,,---,0.00,986.00,VWS V14.00,2013-06-22 18:05:00,
2013-06-22 13:10:00,89.5,64.1,29.67,SE,132,9.0,18.0,43,0.00,,---,0.00,984.00,VWS V14.00,2013-06-22 18:10:00,
2013-06-22 13:15:00,90.2,65.4,29.67,SSE,165,10.0,16.0,44,0.00,,---,0.00,1002.00,VWS V14.00,2013-06-22 18:15:00,
2013-06-22 13:20:00,90.4,64.9,29.66,WSW,248,10.0,16.0,43,0.00,,---,0.00,986.00,VWS V14.00,2013-06-22 18:20:00,
2013-06-22 13:25:00,90.8,63.9,29.67,SSW,199,3.0,13.0,41,0.00,,---,0.00,983.00,VWS V14.00,2013-06-22 18:25:00,
2013-06-22 13:30:00,90.9,64.7,29.67,ESE,103,8.0,23.0,42,0.00,,---,0.00,993.00,VWS V14.00,2013-06-22 18:30:00,
2013-06-22 13:35:00,90.6,64.4,29.67,ESE,123,15.0,16.0,42,0.00,,---,0.00,984.00,VWS V14.00,2013-06-22 18:35:00,
2013-06-22 13:40:00,90.3,64.8,29.66,SE,131,16.0,18.0,43,0.00,,---,0.00,976.00,VWS V14.00,2013-06-22 18:40:00,
2013-06-22 13:45:00,90.6,64.4,29.67,SSE,152,7.0,15.0,42,0.00,,---,0.00,998.00,VWS V14.00,2013-06-22 18:45:00,
2013-06-22 13:50:00,90.8,64.6,29.66,SE,137,11.0,17.0,42,0.00,,---,0.00,1000.00,VWS V14.00,2013-06-22 18:50:00,
2013-06-22 13:55:00,90.7,64.5,29.66,South,175,8.0,22.0,42,0.00,,---,0.00,984.00,VWS V14.00,2013-06-22 18:55:00,
2013-06-22 14:00:00,90.8,64.6,29.65,SSE,165,6.0,22.0,42,0.00,,---,0.00,969.00,VWS V14.00,2013-06-22 19:00:00,
2013-06-22 14:05:00,91.2,64.2,29.64,SSE,148,13.0,18.0,41,0.00,,---,0.00,1016.00,VWS V14.00,2013-06-22 19:05:00,
2013-06-22 14:10:00,91.1,63.4,29.65,SSE,165,11.0,20.0,40,0.00,,---,0.00,1000.00,VWS V14.00,2013-06-22 19:10:00,
2013-06-22 14:15:00,91.1,64.1,29.64,SE,134,8.0,15.0,41,0.00,,---,0.00,1000.00,VWS V14.00,2013-06-22 19:15:00,
2013-06-22 14:20:00,91.4,64.4,29.64,SSE,147,9.0,18.0,41,0.00,,---,0.00,1004.00,VWS V14.00,2013-06-22 19:20:00,
2013-06-22 14:25:00,91.6,63.9,29.64,South,169,4.0,11.0,40,0.00,,---,0.00,958.00,VWS V14.00,2013-06-22 19:25:00,
2013-06-22 14:30:00,92.0,63.5,29.64,SE,135,10.0,18.0,39,0.00,,---,0.00,967.00,VWS V14.00,2013-06-22 19:30:00,
2013-06-22 14:35:00,92.3,63.8,29.64,SE,143,19.0,19.0,39,0.00,,---,0.00,958.00,VWS V14.00,2013-06-22 19:35:00,
2013-06-22 14:40:00,91.8,63.3,29.63,ESE,122,2.0,19.0,39,0.00,,---,0.00,963.00,VWS V14.00,2013-06-22 19:40:00,
2013-06-22 14:45:00,92.1,62.9,29.64,ESE,116,8.0,17.0,38,0.00,,---,0.00,962.00,VWS V14.00,2013-06-22 19:45:00,
2013-06-22 14:50:00,92.2,62.2,29.63,SSE,162,2.0,20.0,37,0.00,,---,0.00,962.00,VWS V14.00,2013-06-22 19:50:00,
2013-06-22 14:55:00,92.2,63.0,29.64,ESE,116,7.0,18.0,38,0.00,,---,0.00,939.00,VWS V14.00,2013-06-22 19:55:00,
2013-06-22 15:00:00,92.1,62.9,29.63,SE,128,9.0,18.0,38,0.00,,---,0.00,937.00,VWS V14.00,2013-06-22 20:00:00,
2013-06-22 15:05:00,92.2,63.0,29.63,SSE,168,6.0,14.0,38,0.00,,---,0.00,935.00,VWS V14.00,2013-06-22 20:05:00,
2013-06-22 15:10:00,92.1,62.9,29.63,SE,137,10.0,20.0,38,0.00,,---,0.00,932.00,VWS V14.00,2013-06-22 20:10:00,
2013-06-22 15:15:00,92.2,63.0,29.63,SE,124,8.0,19.0,38,0.00,,---,0.00,909.00,VWS V14.00,2013-06-22 20:15:00,
2013-06-22 15:20:00,92.4,62.4,29.63,SE,130,8.0,19.0,37,0.00,,---,0.00,914.00,VWS V14.00,2013-06-22 20:20:00,
2013-06-22 15:25:00,92.4,63.1,29.63,ESE,119,7.0,20.0,38,0.00,,---,0.00,914.00,VWS V14.00,2013-06-22 20:25:00,
2013-06-22 15:30:00,92.5,63.2,29.63,SSE,154,8.0,20.0,38,0.00,,---,0.00,905.00,VWS V14.00,2013-06-22 20:30:00,
2013-06-22 15:35:00,92.8,62.7,29.62,SSW,194,5.0,18.0,37,0.00,,---,0.00,888.00,VWS V14.00,2013-06-22 20:35:00,
2013-06-22 15:40:00,93.3,63.2,29.62,SE,142,6.0,18.0,37,0.00,,---,0.00,926.00,VWS V14.00,2013-06-22 20:40:00,
2013-06-22 15:45:00,93.2,62.3,29.62,SE,136,13.0,15.0,36,0.00,,---,0.00,854.00,VWS V14.00,2013-06-22 20:45:00,
2013-06-22 15:50:00,92.9,62.8,29.61,ESE,121,8.0,20.0,37,0.00,,---,0.00,932.00,VWS V14.00,2013-06-22 20:50:00,
2013-06-22 15:55:00,93.0,62.9,29.61,SE,132,12.0,21.0,37,0.00,,---,0.00,840.00,VWS V14.00,2013-06-22 20:55:00,
2013-06-22 16:00:00,93.0,62.1,29.61,ESE,103,11.0,21.0,36,0.00,,---,0.00,837.00,VWS V14.00,2013-06-22 21:00:00,
2013-06-22 16:05:00,93.0,62.1,29.61,SE,136,8.0,14.0,36,0.00,,---,0.00,777.00,VWS V14.00,2013-06-22 21:05:00,
2013-06-22 16:10:00,93.3,62.4,29.60,ESE,114,8.0,19.0,36,0.00,,---,0.00,882.00,VWS V14.00,2013-06-22 21:10:00,
2013-06-22 16:15:00,93.3,62.4,29.60,ESE,116,9.0,16.0,36,0.00,,---,0.00,830.00,VWS V14.00,2013-06-22 21:15:00,
2013-06-22 16:20:00,93.4,63.3,29.60,SSE,153,10.0,19.0,37,0.00,,---,0.00,800.00,VWS V14.00,2013-06-22 21:20:00,
2013-06-22 16:25:00,93.0,62.9,29.60,SSE,149,15.0,20.0,37,0.00,,---,0.00,838.00,VWS V14.00,2013-06-22 21:25:00,
2013-06-22 16:30:00,93.0,62.9,29.60,SE,127,9.0,20.0,37,0.00,,---,0.00,733.00,VWS V14.00,2013-06-22 21:30:00,
2013-06-22 16:35:00,92.7,62.6,29.59,SE,135,6.0,18.0,37,0.00,,---,0.00,677.00,VWS V14.00,2013-06-22 21:35:00,
2013-06-22 16:40:00,92.5,62.5,29.59,SE,137,14.0,19.0,37,0.00,,---,0.00,575.00,VWS V14.00,2013-06-22 21:40:00,
2013-06-22 16:45:00,92.4,63.1,29.59,SE,139,8.0,19.0,38,0.00,,---,0.00,789.00,VWS V14.00,2013-06-22 21:45:00,
2013-06-22 16:50:00,92.4,63.1,29.59,SE,144,13.0,19.0,38,0.00,,---,0.00,800.00,VWS V14.00,2013-06-22 21:50:00,
2013-06-22 16:55:00,92.3,63.0,29.59,SE,134,6.0,19.0,38,0.00,,---,0.00,766.00,VWS V14.00,2013-06-22 21:55:00,
2013-06-22 17:00:00,92.8,63.5,29.59,ESE,123,14.0,19.0,38,0.00,,---,0.00,717.00,VWS V14.00,2013-06-22 22:00:00,
2013-06-22 17:05:00,92.6,62.5,29.58,SSE,148,10.0,18.0,37,0.00,,---,0.00,710.00,VWS V14.00,2013-06-22 22:05:00,
2013-06-22 17:10:00,92.7,63.4,29.58,SSE,166,6.0,18.0,38,0.00,,---,0.00,689.00,VWS V14.00,2013-06-22 22:10:00,
2013-06-22 17:15:00,92.7,62.6,29.58,South,171,7.0,21.0,37,0.00,,---,0.00,636.00,VWS V14.00,2013-06-22 22:15:00,
2013-06-22 17:20:00,92.6,62.5,29.57,ESE,102,5.0,21.0,37,0.00,,---,0.00,626.00,VWS V14.00,2013-06-22 22:20:00,
2013-06-22 17:25:00,92.9,62.8,29.57,SE,136,13.0,22.0,37,0.00,,---,0.00,617.00,VWS V14.00,2013-06-22 22:25:00,
2013-06-22 17:30:00,92.8,62.7,29.57,ESE,109,9.0,22.0,37,0.00,,---,0.00,577.00,VWS V14.00,2013-06-22 22:30:00,
2013-06-22 17:35:00,92.5,62.5,29.58,SE,142,6.0,18.0,37,0.00,,---,0.00,585.00,VWS V14.00,2013-06-22 22:35:00,
2013-06-22 17:40:00,92.4,63.1,29.57,SSE,156,7.0,18.0,38,0.00,,---,0.00,571.00,VWS V14.00,2013-06-22 22:40:00,
2013-06-22 17:45:00,92.3,63.0,29.57,SE,142,4.0,17.0,38,0.00,,---,0.00,547.00,VWS V14.00,2013-06-22 22:45:00,
2013-06-22 17:50:00,92.4,63.1,29.56,SSE,153,13.0,17.0,38,0.00,,---,0.00,533.00,VWS V14.00,2013-06-22 22:50:00,
2013-06-22 17:55:00,92.5,62.5,29.57,SE,138,6.0,13.0,37,0.00,,---,0.00,512.00,VWS V14.00,2013-06-22 22:55:00,
2013-06-22 18:00:00,92.5,62.5,29.57,SSE,148,10.0,21.0,37,0.00,,---,0.00,492.00,VWS V14.00,2013-06-22 23:00:00,
2013-06-22 18:05:00,92.4,62.4,29.56,South,182,9.0,14.0,37,0.00,,---,0.00,461.00,VWS V14.00,2013-06-22 23:05:00,
2013-06-22 18:10:00,91.9,61.9,29.56,SE,136,5.0,19.0,37,0.00,,---,0.00,439.00,VWS V14.00,2013-06-22 23:10:00,
2013-06-22 18:15:00,91.6,62.4,29.55,SSE,157,7.0,19.0,38,0.00,,---,0.00,443.00,VWS V14.00,2013-06-22 23:15:00,
2013-06-22 18:20:00,91.6,62.4,29.56,SE,138,19.0,21.0,38,0.00,,---,0.00,439.00,VWS V14.00,2013-06-22 23:20:00,
2013-06-22 18:25:00,91.3,62.9,29.55,SE,132,5.0,19.0,39,0.00,,---,0.00,406.00,VWS V14.00,2013-06-22 23:25:00,
2013-06-22 18:30:00,91.0,62.6,29.55,SE,137,15.0,19.0,39,0.00,,---,0.00,390.00,VWS V14.00,2013-06-22 23:30:00,
2013-06-22 18:35:00,91.0,61.9,29.55,SE,146,13.0,18.0,38,0.00,,---,0.00,374.00,VWS V14.00,2013-06-22 23:35:00,
2013-06-22 18:40:00,90.9,61.8,29.55,South,170,12.0,18.0,38,0.00,,---,0.00,357.00,VWS V14.00,2013-06-22 23:40:00,
2013-06-22 18:45:00,90.7,62.4,29.55,SSE,162,8.0,15.0,39,0.00,,---,0.00,339.00,VWS V14.00,2013-06-22 23:45:00,
2013-06-22 18:50:00,90.5,62.2,29.55,SE,127,11.0,24.0,39,0.00,,---,0.00,322.00,VWS V14.00,2013-06-22 23:50:00,
2013-06-22 18:55:00,90.2,61.9,29.54,South,169,6.0,16.0,39,0.00,,---,0.00,304.00,VWS V14.00,2013-06-22 23:55:00,
2013-06-22 19:00:00,90.1,61.8,29.55,ESE,117,6.0,22.0,39,0.00,,---,0.00,285.00,VWS V14.00,2013-06-23 00:00:00,
2013-06-22 19:05:00,90.0,61.7,29.55,SE,136,15.0,19.0,39,0.00,,---,0.00,260.00,VWS V14.00,2013-06-23 00:05:00,
2013-06-22 19:10:00,89.9,61.7,29.55,SSE,159,8.0,19.0,39,0.00,,---,0.00,244.00,VWS V14.00,2013-06-23 00:10:00,
2013-06-22 19:15:00,89.8,61.6,29.55,SE,129,7.0,18.0,39,0.00,,---,0.00,220.00,VWS V14.00,2013-06-23 00:15:00,
2013-06-22 19:20:00,89.6,62.1,29.55,SE,134,6.0,18.0,40,0.00,,---,0.00,199.00,VWS V14.00,2013-06-23 00:20:00,
2013-06-22 19:25:00,89.5,62.0,29.55,ESE,113,9.0,18.0,40,0.00,,---,0.00,171.00,VWS V14.00,2013-06-23 00:25:00,
2013-06-22 19:30:00,89.3,62.5,29.55,SSE,166,11.0,18.0,41,0.00,,---,0.00,148.00,VWS V14.00,2013-06-23 00:30:00,
2013-06-22 19:35:00,89.1,62.4,29.55,SSE,154,13.0,16.0,41,0.00,,---,0.00,118.00,VWS V14.00,2013-06-23 00:35:00,
2013-06-22 19:40:00,88.9,62.2,29.55,SSE,166,6.0,20.0,41,0.00,,---,0.00,86.00,VWS V14.00,2013-06-23 00:40:00,
2013-06-22 19:45:00,88.6,61.9,29.55,ESE,121,9.0,15.0,41,0.00,,---,0.00,67.00,VWS V14.00,2013-06-23 00:45:00,
2013-06-22 19:50:00,88.4,62.4,29.55,SE,132,7.0,15.0,42,0.00,,---,0.00,63.00,VWS V14.00,2013-06-23 00:50:00,
2013-06-22 19:55:00,88.2,62.2,29.56,SE,142,9.0,15.0,42,0.00,,---,0.00,81.00,VWS V14.00,2013-06-23 00:55:00,
2013-06-22 20:00:00,88.1,62.1,29.55,SSE,148,8.0,15.0,42,0.00,,---,0.00,54.00,VWS V14.00,2013-06-23 01:00:00,
2013-06-22 20:05:00,87.9,62.0,29.56,ESE,115,5.0,13.0,42,0.00,,---,0.00,42.00,VWS V14.00,2013-06-23 01:05:00,
2013-06-22 20:10:00,87.8,62.5,29.56,SE,132,6.0,15.0,43,0.00,,---,0.00,26.00,VWS V14.00,2013-06-23 01:10:00,
2013-06-22 20:15:00,87.6,62.4,29.56,SSE,165,10.0,11.0,43,0.00,,---,0.00,19.00,VWS V14.00,2013-06-23 01:15:00,
2013-06-22 20:20:00,87.4,62.2,29.56,SE,133,4.0,12.0,43,0.00,,---,0.00,16.00,VWS V14.00,2013-06-23 01:20:00,
2013-06-22 20:25:00,87.2,62.0,29.56,SE,140,2.0,11.0,43,0.00,,---,0.00,12.00,VWS V14.00,2013-06-23 01:25:00,
2013-06-22 20:30:00,87.0,62.5,29.56,SE,144,4.0,11.0,44,0.00,,---,0.00,9.00,VWS V14.00,2013-06-23 01:30:00,
2013-06-22 20:35:00,86.8,62.3,29.56,SE,146,6.0,10.0,44,0.00,,---,0.00,5.00,VWS V14.00,2013-06-23 01:35:00,
2013-06-22 20:40:00,86.6,62.1,29.56,SE,146,5.0,10.0,44,0.00,,---,0.00,0.00,VWS V14.00,2013-06-23 01:40:00,
2013-06-22 20:45:00,86.4,62.6,29.56,SE,142,6.0,10.0,45,0.00,,---,0.00,0.00,VWS V14.00,2013-06-23 01:45:00,
2013-06-22 20:50:00,86.2,62.4,29.56,SE,142,4.0,10.0,45,0.00,,---,0.00,0.00,VWS V14.00,2013-06-23 01:50:00,
2013-06-22 20:55:00,86.0,62.8,29.57,SE,141,4.0,9.0,46,0.00,,---,0.00,0.00,VWS V14.00,2013-06-23 01:55:00,
2013-06-22 21:00:00,85.8,63.3,29.57,SE,144,6.0,9.0,47,0.00,,---,0.00,0.00,VWS V14.00,2013-06-23 02:00:00,
2013-06-22 21:05:00,85.7,63.2,29.57,SE,143,4.0,7.0,47,0.00,,---,0.00,0.00,VWS V14.00,2013-06-23 02:05:00,
2013-06-22 21:10:00,85.5,63.6,29.57,SE,142,6.0,9.0,48,0.00,,---,0.00,0.00,VWS V14.00,2013-06-23 02:10:00,
2013-06-22 21:15:00,85.4,63.5,29.58,SE,143,0.0,5.0,48,0.00,,---,0.00,0.00,VWS V14.00,2013-06-23 02:15:00,
2013-06-22 21:20:00,85.2,63.3,29.57,SE,140,5.0,7.0,48,0.00,,---,0.00,0.00,VWS V14.00,2013-06-23 02:20:00,
2013-06-22 21:25:00,85.1,63.8,29.58,SE,140,0.0,4.0,49,0.00,,---,0.00,0.00,VWS V14.00,2013-06-23 02:25:00,
2013-06-22 21:30:00,84.9,63.6,29.58,SE,140,6.0,7.0,49,0.00,,---,0.00,0.00,VWS V14.00,2013-06-23 02:30:00,
2013-06-22 21:35:00,84.8,64.1,29.58,SE,138,2.0,7.0,50,0.00,,---,0.00,0.00,VWS V14.00,2013-06-23 02:35:00,
2013-06-22 21:40:00,84.7,64.0,29.58,SE,138,5.0,10.0,50,0.00,,---,0.00,0.00,VWS V14.00,2013-06-23 02:40:00,
2013-06-22 21:45:00,84.6,63.9,29.57,SE,136,8.0,12.0,50,0.00,,---,0.00,0.00,VWS V14.00,2013-06-23 02:45:00,
2013-06-22 21:50:00,84.5,64.4,29.57,SE,136,7.0,12.0,51,0.00,,---,0.00,0.00,VWS V14.00,2013-06-23 02:50:00,
2013-06-22 21:55:00,84.4,64.3,29.58,SE,135,5.0,8.0,51,0.00,,---,0.00,0.00,VWS V14.00,2013-06-23 02:55:00,
2013-06-22 22:00:00,84.3,64.2,29.58,SE,133,7.0,9.0,51,0.00,,---,0.00,0.00,VWS V14.00,2013-06-23 03:00:00,
2013-06-22 22:05:00,84.1,64.0,29.58,SE,132,5.0,9.0,51,0.00,,---,0.00,0.00,VWS V14.00,2013-06-23 03:05:00,
2013-06-22 22:10:00,83.9,63.8,29.58,SE,132,8.0,11.0,51,0.00,,---,0.00,0.00,VWS V14.00,2013-06-23 03:10:00,
2013-06-22 22:15:00,83.8,64.3,29.59,SE,131,6.0,12.0,52,0.00,,---,0.00,0.00,VWS V14.00,2013-06-23 03:15:00,
2013-06-22 22:20:00,83.6,64.1,29.59,ESE,121,8.0,13.0,52,0.00,,---,0.00,0.00,VWS V14.00,2013-06-23 03:20:00,
2013-06-22 22:25:00,83.5,64.0,29.59,ESE,123,9.0,11.0,52,0.00,,---,0.00,0.00,VWS V14.00,2013-06-23 03:25:00,
2013-06-22 22:30:00,83.4,64.0,29.60,SE,132,5.0,13.0,52,0.00,,---,0.00,0.00,VWS V14.00,2013-06-23 03:30:00,
2013-06-22 22:35:00,83.2,64.3,29.59,SE,125,5.0,15.0,53,0.00,,---,0.00,0.00,VWS V14.00,2013-06-23 03:35:00,
2013-06-22 22:40:00,83.1,64.2,29.59,SE,127,13.0,15.0,53,0.00,,---,0.00,0.00,VWS V14.00,2013-06-23 03:40:00,
2013-06-22 22:45:00,82.9,64.6,29.60,SE,130,12.0,14.0,54,0.00,,---,0.00,0.00,VWS V14.00,2013-06-23 03:45:00,
2013-06-22 22:50:00,82.8,64.5,29.60,SE,138,11.0,17.0,54,0.00,,---,0.00,0.00,VWS V14.00,2013-06-23 03:50:00,
2013-06-22 22:55:00,82.7,64.4,29.60,SE,145,11.0,12.0,54,0.00,,---,0.00,0.00,VWS V14.00,2013-06-23 03:55:00,
2013-06-22 23:00:00,82.5,64.7,29.60,SE,133,7.0,14.0,55,0.00,,---,0.00,0.00,VWS V14.00,2013-06-23 04:00:00,
2013-06-22 23:01:00,82.5,64.7,29.60,SE,134,8.0,14.0,55,0.00,,---,0.00,0.00,VWS V14.00,2013-06-23 04:01:00,
2013-06-22 23:06:00,82.3,64.5,29.60,SE,129,8.0,13.0,55,0.00,,---,0.00,0.00,VWS V14.00,2013-06-23 04:06:00,
2013-06-22 23:10:00,82.1,64.9,29.60,SE,139,8.0,14.0,56,0.00,,SKC,0.00,0.00,VWS V14.01,2013-06-23 04:10:00,
2013-06-22 23:11:00,82.1,64.9,29.60,SE,139,8.0,14.0,56,0.00,,---,0.00,0.00,VWS V14.00,2013-06-23 04:11:00,
2013-06-22 23:16:00,81.9,64.7,29.61,SE,128,7.0,17.0,56,0.00,,---,0.00,0.00,VWS V14.00,2013-06-23 04:16:00,
2013-06-22 23:20:00,81.8,64.6,29.61,SE,138,5.0,17.0,56,0.00,,SKC,0.00,0.00,VWS V14.01,2013-06-23 04:20:00,
2013-06-22 23:21:00,81.8,64.6,29.61,SE,138,5.0,17.0,56,0.00,,---,0.00,0.00,VWS V14.00,2013-06-23 04:21:00,
2013-06-22 23:26:00,81.5,64.8,29.61,SE,145,6.0,12.0,57,0.00,,---,0.00,0.00,VWS V14.00,2013-06-23 04:26:00,
2013-06-22 23:30:00,81.4,65.2,29.61,SE,142,9.0,19.0,58,0.00,,SKC,0.00,0.00,VWS V14.01,2013-06-23 04:30:00,
2013-06-22 23:31:00,81.4,65.2,29.61,SE,142,9.0,19.0,58,0.00,,---,0.00,0.00,VWS V14.00,2013-06-23 04:31:00,
2013-06-22 23:36:00,81.2,65.5,29.61,SE,144,9.0,12.0,59,0.00,,---,0.00,0.00,VWS V14.00,2013-06-23 04:36:00,
2013-06-22 23:40:00,81.0,65.8,29.61,ESE,122,5.0,12.0,60,0.00,,SKC,0.00,0.00,VWS V14.01,2013-06-23 04:40:00,
2013-06-22 23:41:00,81.0,65.8,29.61,ESE,122,5.0,12.0,60,0.00,,---,0.00,0.00,VWS V14.00,2013-06-23 04:41:00,
2013-06-22 23:46:00,80.9,66.2,29.61,SE,143,7.0,18.0,61,0.00,,---,0.00,0.00,VWS V14.00,2013-06-23 04:46:00,
2013-06-22 23:50:00,80.7,66.5,29.62,SSE,155,8.0,18.0,62,0.00,,SKC,0.00,0.00,VWS V14.01,2013-06-23 04:50:00,
2013-06-22 23:51:00,80.7,66.5,29.62,SSE,155,8.0,18.0,62,0.00,,---,0.00,0.00,VWS V14.00,2013-06-23 04:51:00,
2013-06-22 23:56:00,80.5,66.8,29.62,ESE,112,5.0,11.0,63,0.00,,---,0.00,0.00,VWS V14.00,2013-06-23 04:56:00,